Starlink 32786

operational
NORAD ID: 62528 Int'l Des: 2025-004 Owner: SPXS Country: US Constellation: starlink
LEOCIRCULAR

About Starlink 32786

Description loading...

Live Position

Loading 3D Globe...

Upcoming Passes

Altitude History

Altitude vs Time

uPlot chart will show altitude changes over time

Two-Line Element Set

1 62528U 25004T 25306.05678822 .00025820 00000-0 94429-3 0 9996
2 62528 43.0000 220.2543 0001200 286.1011 73.9708 15.27587852 45993
Epoch: Nov 2, 2025 • Age: 43 hours

Current Status

Altitude 482.5 km
Velocity 7.63 km/s
Sub-Earth Point 16.55°N, 22.17°E
Launch Date Jan 8, 2025
Age 0.8 years
Type internet

Technical Details

Classification Payload
Mass 730.00 kg
Dry Mass 700.00 kg
Total Mass 730.00 kg
Length 0.30 m
Diameter 4.10 m
Span 29.00 m
Shape Box + pan
Manufacturer SPXS
Bus Type Starlink V2M
Phase Status In Orbit
Owner/State SPXS/US

Large Constellations

Loading constellations...